Location: C�an Torras
(41.5052°N, 1.9280°E)
Time: 18:05:56
(UTC+00:00)

COSMOS 2455 - Visible Passes

Search period start: 14 May 2021 00:00
Search period end: 24 May 2021 00:00
Orbit: 902 x 907 km, 67.1° (Epoch: 14 May)

Date Brightness Start Highest point End Pass type
(mag) Time Alt. Az. Time Alt. Az. Time Alt. Az.
14 May 3.2 00:47:16 10° NNW 00:53:15 60° ENE 00:55:11 41° ESE visible
14 May 4.0 02:34:10 10° WNW 02:38:16 22° W 02:38:16 22° W visible
14 May 5.2 23:06:32 10° N 23:10:22 17° NE 23:14:11 10° E visible
15 May 2.8 00:51:14 10° NNW 00:57:17 79° ENE 00:58:17 63° SE visible
15 May 4.5 02:38:59 10° WNW 02:41:22 15° W 02:41:22 15° W visible
15 May 4.9 23:10:10 10° N 23:14:42 21° NE 23:18:25 13° E visible
16 May 2.7 00:55:16 10° NNW 01:01:18 78° WSW 01:01:31 77° SW visible
16 May 4.5 23:13:54 10° N 23:18:57 27° NE 23:21:46 19° E visible
17 May 3.0 00:59:21 10° NW 01:04:51 56° W 01:04:51 56° W visible
17 May 4.1 23:17:42 10° NNW 23:23:10 34° NE 23:25:11 28° E visible
18 May 3.5 01:03:33 10° NW 01:08:17 40° W 01:08:17 40° W visible
18 May 5.4 21:38:18 10° NNE 21:39:44 11° NNE 21:41:10 10° NE visible
18 May 3.6 23:21:33 10° NNW 23:27:19 45° NE 23:28:41 39° E visible
19 May 4.0 01:07:51 10° NW 01:11:47 28° W 01:11:47 28° W visible
19 May 5.2 21:41:17 10° N 21:44:10 13° NE 21:47:03 10° ENE visible
19 May 3.1 23:25:28 10° NNW 23:31:26 59° ENE 23:32:14 54° E visible
20 May 4.4 01:12:21 10° WNW 01:15:21 20° W 01:15:21 20° W visible
20 May 5.0 21:44:45 10° N 21:48:33 17° NE 21:52:21 10° ENE visible
20 May 2.7 23:29:26 10° NNW 23:35:29 79° ENE 23:35:50 75° E visible
21 May 4.8 01:17:09 10° WNW 01:18:58 14° W 01:18:58 14° W visible
21 May 4.7 21:48:23 10° N 21:52:53 21° NE 21:56:23 13° E visible
21 May 2.7 23:33:27 10° NNW 23:39:30 79° WSW 23:39:30 79° WSW visible
22 May 4.4 21:52:07 10° N 21:57:08 27° NE 22:00:05 19° E visible
22 May 3.0 23:37:33 10° NW 23:43:12 58° WSW 23:43:12 58° WSW visible
23 May 4.0 21:55:54 10° NNW 22:01:21 34° NE 22:03:48 25° E visible
23 May 3.5 23:41:44 10° NW 23:46:56 42° W 23:46:56 42° W visible
